[[{"header":{"parameterUnit":"m.s-1","parameterCategory":1,"la1":30.2991,"la2":30.254,"lo1":-89.0895,"lo2":-89.0444,"dy":0.0017,"dx":0.0017,"nx":28,"ny":28,"refTime":"2025-09-02T03:00:00:Z","depth":0,"parameterNumber":2,"parameterNumberName":"U-component_of_WINDS"},"data":[0,0,0,0,0,0,0,0,0,0,0,0,0,0,0,0,0,0,0,0,0,0,0,0,0,0,0,0,0,0,0,0,0,0,0,0,0,0,0,0,0,0,0,0,0,0,0,0,0,0,0,0,0,0,0,0,0,0,-3.1065,-3.1064,0,-3.1012,-3.1011,-3.1011,-3.0896,-3.0893,-3.0891,-3.0889,-3.0837,-3.0837,-3.0838,0,0,0,0,0,0,0,0,0,0,0,0,0,-3.1071,-3.1072,-3.1065,-3.1064,-3.1064,-3.1012,-3.1011,-3.101,-3.0896,-3.0893,-3.089,-3.0888,-3.0836,-3.0837,-3.0838,0,0,0,0,0,0,0,0,0,0,0,0,0,-3.1049,-3.1072,-3.1065,-3.1,-3.0994,-3.1012,-3.1011,-3.101,-3.0897,-3.0893,-3.089,-3.0886,-3.0836,-3.0837,-3.0838,-3.0916,0,0,-3.0842,-3.0843,0,0,0,0,0,0,0,0,-3.105,-3.1048,-3.1011,-3.1005,-3.0998,-3.0957,-3.0994,-3.0979,-3.0898,-3.0934,-3.0889,-3.0885,-3.088,-3.0877,-3.0875,-3.0913,-3.0911,-3.0842,-3.0843,-3.0843,-3.0844,0,0,0,0,0,0,0,-3.1052,-3.105,-3.1044,-3.101,-3.1002,-3.0975,-3.0968,-3.0991,-3.0927,-3.093,-3.0922,-3.0917,-3.0875,-3.0874,-3.0873,-3.091,-3.0842,-3.0843,-3.0844,-3.0844,-3.1012,-3.1015,0,0,0,0,0,0,-3.1062,-3.1052,-3.1046,-3.1042,-3.1016,-3.0978,-3.097,-3.0974,-3.0926,-3.0916,-3.092,-3.0912,-3.0874,-3.0871,-3.087,-3.0959,-3.0843,-3.0844,-3.0845,-3.1008,-3.1012,-3.1016,0,0,0,0,0,0,-3.1063,-3.1063,-3.1048,-3.1045,-3.1041,-3.0981,-3.0986,-3.0974,-3.0972,-3.0919,-3.0907,-3.093,-3.0871,-3.0869,-3.0906,-3.0955,-3.0845,-3.0846,-3.1004,-3.1009,-3.1014,-3.1136,0,0,0,0,0,0,-3.1064,-3.1064,-3.1092,-3.1046,-3.1042,-3.1083,-3.0989,-3.0976,-3.0975,-3.0963,-3.0925,-3.0915,-3.0868,-3.0904,-3.0907,-3.0955,-3.0847,-3.0999,-3.1006,-3.1013,-3.1127,-3.1145,-3.116,0,0,0,0,0,-3.1064,-3.1128,-3.1093,-3.1093,-3.1075,-3.1086,-3.1083,-3.1027,-3.0979,-3.1007,-3.0973,-3.0916,-3.095,-3.0909,-3.0911,-3.096,-3.0995,-3.1004,-3.1012,-3.112,-3.1141,-3.116,0,0,0,0,0,0,-3.1181,-3.1121,-3.1082,-3.1133,-3.1116,-3.1067,-3.11,-3.1052,-3.1048,-3.1038,-3.0969,-3.0961,-3.1008,-3.0987,-3.0943,-3.1033,-3.0964,-3.0973,-3.1045,-3.1065,-3.1081,-3.1085,-3.0848,0,0,0,0,0,-3.1212,-3.1226,-3.1173,-3.1223,-3.1216,-3.116,-3.1163,-3.1121,-3.1101,-3.1093,-3.1061,-3.1044,-3.1051,-3.1057,-3.106,-3.1124,-3.1114,-3.1159,-3.1175,-3.1189,-3.1198,-3.1231,-3.1251,-3.1044,-3.1044,-3.1044,0,0,-3.1278,-3.1247,-3.1259,-3.1246,-3.1227,-3.1244,-3.1155,-3.1175,-3.1187,-3.1096,-3.1129,-3.1106,-3.1082,-3.1134,-3.1154,-3.1118,-3.1253,-3.12,-3.1211,-3.1212,-3.1242,-3.1262,-3.1279,-3.105,-3.1049,-3.1048,0,0,-3.1405,-3.1383,-3.1422,-3.1406,-3.1379,-3.1342,-3.1352,-3.1311,-3.1292,-3.1324,-3.1256,-3.127,-3.1283,-3.1269,-3.1264,-3.1389,-3.1337,-3.1392,-3.1478,-3.1512,-3.1528,-3.1542,-3.1588,-3.1605,-3.1401,-3.1401,-3.1402,0,-3.149,-3.1511,-3.1449,-3.1475,-3.1471,-3.139,-3.143,-3.1418,-3.1394,-3.1394,-3.1354,-3.1369,-3.1347,-3.1395,-3.1426,-3.1424,-3.1434,-3.1396,-3.1531,-3.1544,-3.1557,-3.1599,-3.1616,-3.1408,-3.1408,-3.1407,-3.1406,0,-3.1617,-3.1633,-3.1669,-3.1647,-3.1648,-3.1681,-3.1626,-3.1634,-3.1593,-3.1561,-3.1595,-3.1567,-3.1564,-3.1572,-3.1532,-3.1615,-3.1593,-3.1543,-3.1471,-3.1584,-3.1623,-3.1639,-3.1418,-3.1416,-3.1414,-3.1412,0,0,-3.1815,-3.1761,-3.1775,-3.1765,-3.173,-3.1742,-3.1772,-3.1768,-3.1777,-3.1765,-3.1789,-3.1803,-3.1756,-3.1751,-3.1709,-3.1739,-3.1841,-3.1685,-3.1683,-3.1715,-3.1932,-3.197,-3.1989,-3.1807,-3.181,-3.1812,-3.1934,0,-3.1935,-3.1982,-3.1928,-3.1988,-3.2002,-3.1926,-3.1953,-3.1936,-3.1907,-3.1916,-3.1884,-3.1895,-3.1833,-3.1829,-3.1855,-3.1823,-3.1883,-3.1814,-3.183,-3.1831,-3.1838,-3.2009,-3.2049,-3.2165,-3.1948,-3.1951,-3.1953,0,-3.208,-3.2074,-3.2135,-3.2098,-3.2102,-3.2127,-3.212,-3.2129,-3.2109,-3.2086,-3.2081,-3.2031,-3.2059,-3.199,-3.2029,-3.1983,-3.1987,-3.1973,-3.1976,-3.1975,-3.1899,-3.2014,-3.2201,-3.2219,-3.1976,-3.1974,-3.1972,0,-3.2219,-3.2226,-3.2263,-3.2257,-3.2215,-3.2235,-3.2218,-3.2194,-3.2196,-3.219,-3.2191,-3.219,-3.2189,-3.219,-3.2141,-3.2095,-3.2187,-3.2113,-3.217,-3.2171,-3.2192,-3.2191,-3.2383,-3.2195,-3.2195,-3.2194,-3.2194,0,-3.2358,-3.2399,-3.2326,-3.2349,-3.2392,-3.2331,-3.2376,-3.2352,-3.2332,-3.235,-3.2285,-3.2304,-3.2238,-3.2251,-3.2213,-3.2252,-3.2252,-3.2235,-3.2225,-3.2241,-3.2243,-3.2242,-3.2233,-3.2199,-3.2198,-3.2197,-3.2196,0,-3.252,-3.2473,-3.2509,-3.2467,-3.2457,-3.2491,-3.2455,-3.2476,-3.2443,-3.2467,-3.2469,-3.2419,-3.243,-3.2382,-3.2385,-3.236,-3.2418,-3.2394,-3.2425,-3.2418,-3.2477,-3.2472,-3.2674,-3.2698,-3.2495,-3.2497,-3.2499,0,-3.2612,-3.2641,-3.2602,-3.2609,-3.2596,-3.2609,-3.261,-3.2552,-3.2557,-3.2537,-3.256,-3.2566,-3.2568,-3.259,-3.2554,-3.2556,-3.2532,-3.2603,-3.2532,-3.2548,-3.2534,-3.2533,-3.2536,-3.2618,-3.262,-3.2622,-3.2624,0,-3.278,-3.2756,-3.276,-3.2757,-3.2761,-3.2756,-3.2746,-3.2756,-3.2694,-3.2703,-3.2713,-3.2714,-3.2718,-3.2725,-3.272,-3.2704,-3.2655,-3.2647,-3.266,-3.2677,-3.2693,-3.2686,-3.2465,-3.2642,-3.264,-3.2639,-3.2638,-3.2637,-3.291,-3.2933,-3.2909,-3.2917,-3.2904,-3.2897,-3.2914,-3.2884,-3.2892,-3.289,-3.2855,-3.2873,-3.2854,-3.2843,-3.2832,-3.2846,-3.2813,-3.2832,-3.2837,-3.2842,-3.2853,-3.2692,-3.2845,-3.2844,-3.2844,-3.2843,-3.2843,0,-3.3075,-3.3056,-3.3064,-3.3053,-3.306,-3.3011,-3.2999,-3.3008,-3.3024,-3.301,-3.3013,-3.3027,-3.3034,-3.2999,-3.3002,-3.302,-3.2997,-3.3023,-3.3021,-3.3018,-3.2882,-3.287,-3.3041,-3.3041,-3.3041,-3.3041,-3.3041,-3.3041,-3.3161,-3.3198,-3.3171,-3.3202,-3.3183,-3.3199,-3.3196,-3.319,-3.3179,-3.3196,-3.3202,-3.3179,-3.3158,-3.3158,-3.3164,-3.3153,-3.3158,-3.3191,-3.3174,-3.3047,-3.3028,-3.3009,-3.2998,-3.3193,-3.3193,-3.3308,-3.3309,-3.331]},{"header":{"parameterUnit":"m.s-1","parameterCategory":1,"la1":30.2991,"la2":30.254,"lo1":-89.0895,"lo2":-89.0444,"dy":0.0017,"dx":0.0017,"nx":28,"ny":28,"refTime":"2025-09-02T03:00:00:Z","depth":0,"parameterNumber":3,"parameterNumberName":"V-component_of_WINDS"},"data":[0,0,0,0,0,0,0,0,0,0,0,0,0,0,0,0,0,0,0,0,0,0,0,0,0,0,0,0,0,0,0,0,0,0,0,0,0,0,0,0,0,0,0,0,0,0,0,0,0,0,0,0,0,0,0,0,0,0,1.636,1.636,0,1.633,1.633,1.6329,1.6362,1.6363,1.6364,1.6366,1.6328,1.6326,1.6324,0,0,0,0,0,0,0,0,0,0,0,0,0,1.644,1.6438,1.636,1.636,1.6359,1.633,1.633,1.6329,1.6362,1.6363,1.6365,1.6366,1.6329,1.6326,1.6324,0,0,0,0,0,0,0,0,0,0,0,0,0,1.6407,1.6438,1.636,1.6372,1.6373,1.633,1.633,1.6329,1.6361,1.6363,1.6365,1.6367,1.633,1.6327,1.6323,1.6265,0,0,1.6314,1.6312,0,0,0,0,0,0,0,0,1.6409,1.6404,1.6371,1.6371,1.6372,1.6352,1.6344,1.6308,1.6361,1.6365,1.6366,1.6368,1.6334,1.6331,1.6321,1.6264,1.6262,1.6313,1.6311,1.631,1.6309,0,0,0,0,0,0,0,1.6411,1.6405,1.6348,1.637,1.6371,1.6377,1.6375,1.6337,1.6339,1.6365,1.6368,1.6364,1.6335,1.6324,1.632,1.6262,1.6313,1.631,1.6308,1.6307,1.6155,1.6153,0,0,0,0,0,0,1.6413,1.6407,1.6349,1.6347,1.6396,1.6374,1.6371,1.6356,1.634,1.6339,1.6362,1.6366,1.6328,1.6324,1.6319,1.6249,1.631,1.6307,1.6305,1.6157,1.6154,1.6152,0,0,0,0,0,0,1.6414,1.6407,1.635,1.6378,1.6371,1.6371,1.6354,1.6355,1.6344,1.6338,1.6338,1.6351,1.633,1.6323,1.6279,1.6248,1.6305,1.6302,1.6159,1.6156,1.6153,1.6109,0,0,0,0,0,0,1.6417,1.6408,1.6387,1.6377,1.6369,1.6312,1.6352,1.6353,1.6339,1.6343,1.6327,1.6326,1.6331,1.6283,1.6276,1.6244,1.63,1.6162,1.6158,1.6154,1.6113,1.6104,1.6097,0,0,0,0,0,1.6419,1.6374,1.6386,1.6378,1.6344,1.631,1.6305,1.6313,1.6336,1.6314,1.6311,1.6327,1.6253,1.6279,1.627,1.6237,1.6164,1.6159,1.6154,1.6116,1.6106,1.6097,0,0,0,0,0,0,1.6377,1.6373,1.6385,1.6336,1.6324,1.6316,1.6288,1.6302,1.6281,1.6285,1.6294,1.6291,1.6243,1.6236,1.6265,1.618,1.6212,1.6205,1.6186,1.6176,1.6168,1.617,1.6297,0,0,0,0,0,1.6363,1.6338,1.6335,1.6292,1.6285,1.6288,1.6273,1.6281,1.6267,1.6261,1.6255,1.6239,1.6212,1.6194,1.617,1.6113,1.6109,1.6086,1.6079,1.6072,1.6065,1.6034,1.6023,1.6137,1.6137,1.6137,0,0,1.6331,1.6326,1.6309,1.6283,1.6274,1.6246,1.6283,1.6252,1.623,1.6256,1.6213,1.6208,1.6191,1.614,1.6117,1.6133,1.6034,1.6066,1.6061,1.6058,1.6028,1.6017,1.6007,1.6133,1.6134,1.6134,0,0,1.626,1.6254,1.6217,1.6208,1.6195,1.6198,1.6189,1.6179,1.6177,1.6136,1.6154,1.6129,1.6083,1.607,1.6057,1.5983,1.5996,1.5975,1.5932,1.5901,1.5892,1.5884,1.5856,1.5846,1.5969,1.5968,1.5968,0,1.6222,1.6182,1.6196,1.6164,1.6151,1.6176,1.6137,1.6127,1.6106,1.6095,1.6115,1.6058,1.6049,1.5994,1.5976,1.5966,1.5954,1.5975,1.5893,1.5885,1.5878,1.5851,1.584,1.5966,1.5966,1.5966,1.5967,0,1.6135,1.6108,1.6079,1.606,1.6045,1.6009,1.6016,1.5998,1.6008,1.6008,1.5964,1.5954,1.5928,1.5916,1.5924,1.5863,1.5873,1.5892,1.5924,1.5864,1.5838,1.5828,1.5962,1.5963,1.5964,1.5964,0,0,1.6033,1.6024,1.6013,1.6005,1.5993,1.5971,1.5937,1.5913,1.5897,1.5882,1.5852,1.5814,1.5832,1.5818,1.5825,1.5798,1.5738,1.5821,1.5821,1.5804,1.5667,1.5651,1.5638,1.5748,1.5746,1.5745,1.5668,0,1.5959,1.5902,1.5914,1.5856,1.583,1.5854,1.5824,1.5813,1.5813,1.5789,1.5788,1.576,1.5788,1.5779,1.5754,1.575,1.571,1.5757,1.5717,1.5716,1.5718,1.5625,1.5607,1.5535,1.5658,1.5657,1.5655,0,1.5865,1.5849,1.5789,1.5783,1.5772,1.5745,1.5724,1.5702,1.569,1.5691,1.5676,1.5689,1.5653,1.5688,1.5637,1.5669,1.5654,1.565,1.5647,1.5641,1.568,1.5614,1.5512,1.55,1.564,1.5641,1.5642,0,1.5794,1.5757,1.5717,1.5709,1.5701,1.5681,1.5676,1.5666,1.5651,1.5632,1.5622,1.56,1.5586,1.5567,1.5573,1.5598,1.552,1.5556,1.5518,1.5518,1.5498,1.5498,1.5389,1.5493,1.5493,1.5493,1.5494,0,1.5709,1.567,1.5685,1.5659,1.5617,1.5631,1.5588,1.5586,1.5577,1.5551,1.5571,1.5545,1.5555,1.553,1.5534,1.549,1.5485,1.5483,1.5484,1.5479,1.5479,1.5467,1.5471,1.5491,1.5491,1.5492,1.5492,0,1.562,1.5629,1.5586,1.5582,1.558,1.5549,1.5545,1.5521,1.5523,1.5489,1.5482,1.5485,1.5456,1.5461,1.5428,1.5431,1.5376,1.5384,1.538,1.5381,1.5342,1.5344,1.5219,1.5202,1.5319,1.5318,1.5317,0,1.5564,1.5535,1.553,1.5514,1.5509,1.5484,1.5469,1.5482,1.5466,1.5451,1.5427,1.5401,1.538,1.5332,1.533,1.5305,1.5311,1.5269,1.5307,1.5304,1.5308,1.5308,1.5304,1.526,1.5259,1.5258,1.5257,0,1.5462,1.5468,1.5448,1.5429,1.5411,1.5397,1.5383,1.5369,1.5381,1.5362,1.5334,1.5318,1.5286,1.5258,1.5235,1.5228,1.5243,1.5246,1.5235,1.5229,1.5227,1.5225,1.5356,1.5248,1.5249,1.5249,1.525,1.525,1.5386,1.5362,1.5354,1.5331,1.5323,1.531,1.5287,1.5288,1.5265,1.5242,1.5251,1.5218,1.5206,1.5177,1.5168,1.5142,1.5157,1.5142,1.5138,1.5133,1.5127,1.5234,1.5138,1.5138,1.5138,1.5138,1.5139,0,1.5283,1.528,1.5259,1.5241,1.5222,1.5242,1.5229,1.5211,1.5183,1.5172,1.5152,1.5119,1.5093,1.509,1.5065,1.5044,1.505,1.5036,1.5036,1.5034,1.5116,1.5127,1.5032,1.5032,1.5032,1.5032,1.5032,1.5032,1.5227,1.5187,1.5192,1.5148,1.5145,1.5115,1.5105,1.5093,1.5084,1.5048,1.5027,1.5026,1.5018,1.4993,1.4969,1.4969,1.4957,1.494,1.4942,1.5018,1.5029,1.5039,1.5048,1.4938,1.4938,1.4862,1.4861,1.4861]}]]